Presure
125 141 180 136 135 156 226 227 196 172 162 147 159 167 195 168 166 175 177 172 178 186 177 175 178 178 175 195 198 185 206 201 203 201 195 183 188 162 182 101 95 96 92 92 100
110 132 127 176 135 141 239 218 230 179 188 152 166 184 168 172 168 169 181 181 183 181 178 179 186 188 174 180 190 198 206 196 152 65 198 200 201 198 200 135 90 91 97 95 93
193 129 123 204 159 196 184 220 235 175 187 155 159 167 179 167 163 174 194 180 184 179 181 201 212 221 234 202 206 189 201 185 195 192 196 191 204 217 207 194 205 91 92 98 99
123 212 161 120 146 139 235 228 235 194 176 178 162 174 171 165 174 181 190 202 188 197 222 265 292 369 260 260 243 223 220 206 191 187 187 188 198 200 223 207 159 200 138 88 103
114 183 227 126 200 155 172 228 234 190 173 173 176 166 173 169 175 190 207 197 232 329 337 360 408 413 408 412 440 440 420 296 224 203 195 186 180 198 210 217 207 198 101 199 100
226 115 187 159 134 141 204 220 234 191 176 190 177 171 186 171 202 204 216 238 322 345 383 379 425 438 497 482 470 465 471 480 400 230 210 193 180 183 193 200 224 205 177 190 131
232 116 167 138 137 186 222 224 225 187 189 175 177 181 186 207 213 212 231 305 372 377 372 421 458 459 432 408 444 447 451 450 467 400 255 211 109 193 179 195 203 220 201 182 118
152 116 140 144 134 142 172 236 192 184 165 174 178 193 186 206 220 221 290 312 356 342 423 465 428 410 404 380 374 431 438 434 434 462 449 243 216 199 189 189 195 218 209 190 178
244 145 194 202 123 141 227 226 187 188 178 175 179 208 196 212 211 241 307 326 357 337 472 418 376 370 363 364 343 360 408 418 413 424 452 382 233 223 202 200 175 192 204 199 178
126 148 210 152 144 143 227 201 188 177 180 186 185 209 200 218 216 282 309 341 343 388 400 369 353 348 344 336 330 337 359 402 400 397 435 458 246 221 228 187 204 181 181 207 188
230 138 240 123 217 217 224 195 189 179 179 194 194 204 204 204 242 287 321 336 324 406 403 346 344 338 394 366 366 388 335 378 380 377 409 236 367 226 225 225 205 191 188 183 204
126 228 134 223 207 145 230 196 183 185 182 183 195 209 206 215 281 315 319 351 320 465 384 343 540 524 470 338 417 366 352 342 362 369 389 417 453 229 221 223 213 204 158 185 219
263 212 133 211 147 220 221 193 184 181 186 192 194 208 215 225 291 313 307 344 352 442 350 368 506 487 466 394 410 388 499 322 357 359 371 403 385 275 225 228 227 209 195 186 188
138 237 160 205 210 226 213 194 183 189 190 184 204 202 217 301 292 303 311 337 335 431 342 532 510 491 484 414 394 369 496 344 325 353 362 386 409 408 227 220 225 212 207 199 182
208 200 221 209 226 217 211 189 181 191 184 203 207 212 203 246 299 307 313 332 325 419 345 506 503 484 477 455 377 354 488 476 310 342 353 370 389 422 284 232 225 81 209 207 86
182 117 219 211 233 212 192 187 182 183 185 207 199 208 215 231 289 295 304 335 305 399 351 473 492 468 477 395 363 341 478 472 325 315 338 356 378 420 279 278 236 229 215 207 201
127 131 227 206 121 214 178 189 182 174 196 204 196 198 218 241 290 282 314 338 320 395 373 479 485 473 461 378 356 332 470 472 369 302 319 341 361 399 251 276 246 235 224 107 80
202 130 229 203 143 215 193 186 181 188 204 197 189 197 219 252 271 275 299 345 309 339 383 530 517 489 417 361 442 447 459 463 366 313 311 329 357 401 408 263 248 239 228 206 87
128 131 230 203 221 173 190 183 189 188 201 189 192 193 218 247 251 257 306 318 305 336 402 331 508 473 392 356 437 437 376 457 346 357 296 320 358 384 387 345 257 238 235 216 211
179 125 229 205 221 171 187 182 192 203 197 189 194 189 216 249 239 269 285 322 304 332 386 354 483 506 436 348 428 430 422 448 375 343 331 310 337 392 379 409 261 252 239 227 215
157 126 220 211 218 200 183 191 187 199 191 188 195 187 215 248 246 271 270 308 316 305 337 389 336 504 473 363 431 420 428 430 443 326 343 300 327 364 376 373 259 253 245 236 214
224 125 231 208 210 191 179 174 193 196 187 189 193 201 216 217 253 267 273 302 304 307 320 372 338 485 495 386 449 408 414 396 439 347 338 365 303 335 391 395 261 253 247 244 223
230 187 230 211 203 148 179 191 175 191 183 186 188 210 216 211 240 258 251 285 295 323 310 352 383 310 504 471 354 414 418 417 398 435 326 343 389 325 358 383 383 255 248 244 234
241 188 219 216 196 186 180 188 178 189 176 186 188 209 208 212 228 245 261 277 291 302 295 317 381 360 454 516 375 441 465 430 424 435 408 340 376 334 355 364 365 380 250 245 238
229 114 135 222 203 183 181 190 187 188 174 186 183 209 211 215 228 245 236 265 267 296 312 308 340 389 345 525 489 359 441 506 508 437 419 357 344 366 311 370 377 372 248 245 242
237 234 176 213 200 187 188 175 187 187 178 187 177 207 207 182 206 246 248 258 257 300 308 306 329 392 366 324 528 423 348 438 510 511 431 397 343 346 361 337 370 372 399 245 242
243 211 158 214 189 188 184 177 190 182 182 184 176 202 203 207 205 228 248 244 259 260 313 309 311 332 391 338 465 509 467 347 433 508 512 424 353 349 359 319 344 359 364 307 243
Wind_Speed
43 39 36 41 44 42 31 32 36 40 42 48 47 48 43 52 55 58 62 67 70 73 80 87 91 94 96 97 101 102 98 88 86 87 88 95 94 68 90 71 68 73 65 54 61
51 44 48 41 43 45 34 34 34 40 41 48 47 46 50 54 58 63 64 67 70 74 81 87 93 98 99 106 108 108 104 91 75 20 90 91 96 95 91 83 70 75 79 69 65
43 47 46 38 46 41 43 35 36 42 42 48 49 49 51 55 62 68 67 69 74 80 87 86 91 98 103 113 114 97 103 100 98 98 95 93 94 95 93 87 83 70 67 78 75
49 43 45 55 44 48 41 39 40 41 46 47 51 52 55 59 66 69 70 70 76 82 89 95 96 94 97 104 114 119 115 111 100 96 95 95 98 95 91 91 67 72 86 57 81
51 50 43 55 43 49 47 42 43 43 49 50 53 56 59 63 71 72 72 74 88 93 94 89 81 79 79 79 74 79 86 109 114 111 106 101 94 100 90 91 89 79 87 66 72
50 56 46 48 54 53 47 43 46 46 51 53 56 59 64 67 75 71 78 94 97 92 85 82 76 72 54 50 52 51 57 60 93 114 112 112 104 97 90 92 89 84 67 68 86
53 54 47 52 54 50 46 47 50 52 54 56 60 65 68 74 77 81 95 99 90 86 82 77 62 53 52 51 47 48 51 55 58 91 116 118 61 103 87 95 87 87 80 73 92
53 57 51 52 57 57 56 53 53 56 57 60 65 71 70 78 89 90 100 97 86 85 79 57 54 50 46 44 46 46 48 49 53 59 78 129 107 108 107 94 90 87 87 78 76
50 56 53 48 65 60 51 52 58 60 63 66 69 81 77 88 88 101 95 94 84 81 57 49 48 47 43 40 41 44 43 46 53 59 64 102 113 118 114 107 79 89 87 86 80
55 60 53 58 62 61 55 52 62 63 68 74 79 86 83 96 95 102 95 96 89 80 56 51 47 43 42 36 37 41 39 43 47 56 59 69 116 122 118 101 108 88 90 92 87
54 54 48 64 52 55 57 56 62 67 74 81 87 90 90 91 106 101 94 92 91 79 53 51 47 40 39 37 37 42 40 40 47 57 58 38 101 125 119 118 113 102 99 92 94
63 51 60 53 53 62 62 59 67 73 78 82 89 96 94 101 98 94 96 90 87 64 55 49 22 22 28 32 36 37 43 43 52 54 55 62 68 128 121 120 118 113 83 91 99
46 58 62 58 69 60 61 63 69 74 80 85 89 95 101 101 97 98 96 91 90 67 55 48 27 25 27 27 32 36 35 48 53 54 56 61 61 126 132 127 121 117 107 94 89
62 59 59 59 62 61 60 64 70 76 81 84 93 94 104 100 102 101 102 97 92 73 61 29 25 23 23 25 28 35 33 53 52 56 58 63 64 76 141 126 123 118 113 104 89
96 63 68 63 63 60 61 67 72 78 83 91 94 102 92 110 105 103 102 99 96 83 64 40 28 20 23 20 26 32 30 35 53 56 58 63 69 68 130 141 132 29 116 111 52
67 62 68 66 63 61 64 68 75 79 84 93 94 102 107 109 104 105 100 99 95 88 75 41 29 24 17 17 22 28 21 30 59 55 58 65 68 64 130 139 141 127 119 112 106
59 66 67 65 70 62 66 69 74 78 87 91 93 96 105 107 104 104 103 98 88 88 74 40 26 24 22 13 18 24 15 24 58 58 60 68 72 70 128 137 140 132 124 51 42
88 62 71 64 71 61 65 70 75 81 86 90 92 97 105 103 100 105 105 98 92 95 80 34 26 18 23 11 10 8 12 22 53 61 65 71 75 56 69 134 139 135 128 112 42
65 59 72 67 64 66 66 71 77 81 83 86 92 95 104 105 108 102 110 105 94 98 85 71 32 23 25 15 9 6 22 20 54 59 68 73 76 74 75 101 137 137 132 124 120
66 64 72 68 63 65 66 72 76 78 83 86 93 90 103 100 107 108 111 106 99 102 93 78 38 25 24 20 10 6 15 21 48 61 70 71 73 68 73 71 138 136 133 131 120
66 67 66 64 61 60 66 71 76 77 82 86 93 91 102 100 102 111 107 108 100 101 102 83 74 26 22 27 11 7 12 21 31 60 64 67 69 71 76 86 135 134 134 129 123
67 66 66 59 57 59 65 70 73 77 82 87 93 94 100 105 100 109 108 113 106 102 102 91 74 34 21 29 14 8 10 25 30 56 60 61 70 75 67 71 133 131 134 132 129
61 62 61 56 54 69 64 68 74 76 81 87 93 94 98 102 102 104 104 111 110 102 97 97 80 70 20 22 26 9 8 18 33 40 59 62 65 74 72 64 77 133 134 134 132
62 57 57 54 52 56 63 66 72 74 78 86 88 91 96 101 103 101 110 111 111 106 98 97 89 72 43 18 27 15 9 12 26 38 52 61 67 74 74 76 78 82 132 135 135
58 53 65 50 50 56 63 64 68 73 77 83 86 88 94 99 101 100 102 113 110 109 103 98 97 75 66 21 18 24 12 10 11 34 49 61 66 73 77 74 77 84 136 134 136
61 53 51 48 48 55 60 65 67 72 77 82 83 87 92 81 94 101 103 110 108 112 106 99 97 78 68 59 17 22 20 12 12 15 42 60 67 70 74 74 70 71 72 138 134
51 47 51 44 48 53 59 63 64 71 76 80 83 86 90 93 97 101 105 104 111 110 104 100 95 93 71 62 34 18 19 16 9 14 18 53 65 70 74 76 76 76 79 122 138
Wind_Direction
337 334 328 335 334 333 297 291 292 299 303 315 303 297 276 287 286 278 274 275 271 266 267 266 263 262 262 257 254 255 253 251 251 248 247 248 249 247 245 223 228 233 231 223 230
345 332 331 316 331 333 309 297 294 296 288 309 302 290 294 290 290 286 282 278 275 274 270 266 264 259 263 259 257 253 249 245 245 213 244 244 247 246 246 229 225 230 232 229 225
332 332 335 324 328 326 325 305 303 302 295 309 307 301 293 293 293 290 287 283 279 273 269 268 267 265 263 254 255 265 254 249 247 247 243 244 245 243 244 246 246 227 225 232 230
332 331 328 332 331 327 318 312 310 296 304 303 308 303 303 301 296 292 290 287 278 278 285 284 279 281 264 260 256 253 251 249 254 253 250 245 243 242 240 241 240 238 228 215 228
343 336 330 329 325 328 318 314 313 304 312 311 309 309 306 305 300 298 299 290 300 301 299 296 292 284 276 270 264 259 249 245 244 247 247 247 247 242 237 237 237 237 225 231 224
339 339 329 326 326 327 323 315 316 310 316 312 313 312 309 308 304 306 311 313 311 308 306 302 296 289 279 273 267 258 250 244 234 240 241 242 246 246 243 239 233 232 226 228 226
342 338 328 327 326 325 322 318 318 316 317 320 316 318 315 314 317 320 321 317 318 315 312 306 295 286 275 271 265 257 248 241 236 229 229 236 240 240 239 240 234 228 227 223 226
325 338 327 326 327 326 327 325 317 321 324 323 324 319 322 322 326 326 325 323 324 318 317 303 296 290 275 269 268 258 249 238 234 230 226 226 232 231 239 236 234 227 224 220 223
335 325 331 330 333 325 328 325 321 323 326 327 326 324 327 329 331 329 326 328 327 323 314 306 300 295 285 270 258 259 249 236 228 227 223 219 223 228 229 234 230 231 222 218 216
343 331 330 337 328 324 330 321 324 329 329 327 329 327 331 330 333 332 331 335 332 334 326 316 305 296 284 272 256 252 247 234 224 228 223 221 215 225 224 227 228 223 227 217 211
340 324 330 332 337 333 330 324 326 329 332 330 330 330 334 337 334 333 338 339 335 337 322 318 311 300 286 276 265 248 238 231 222 221 218 224 210 219 224 221 225 225 223 221 211
326 338 325 337 337 328 333 326 333 334 334 334 332 331 337 338 337 343 344 342 337 341 333 323 315 296 280 278 256 245 234 224 220 218 214 214 219 213 221 222 221 222 216 218 212
342 336 325 341 335 337 335 331 335 336 334 333 334 334 336 339 341 349 346 346 348 346 339 329 324 307 286 271 252 243 237 224 216 215 211 212 214 206 217 220 218 219 220 217 215
332 336 329 340 337 338 335 332 337 335 334 337 334 338 337 350 348 351 350 349 350 352 345 340 328 310 294 265 246 238 241 216 220 211 210 207 208 204 211 217 219 216 217 220 213
353 333 339 340 339 339 336 336 339 336 337 333 337 337 347 346 355 354 354 352 350 354 352 344 338 321 303 281 241 235 239 224 212 211 207 208 206 204 204 213 216 206 215 216 213
341 341 339 339 338 338 337 339 339 338 337 337 340 341 342 346 356 356 357 357 354 356 356 349 342 335 323 272 238 230 240 224 208 206 205 206 206 203 204 205 214 212 211 213 214
341 328 337 340 337 338 336 338 340 338 337 339 343 345 342 348 358 356 359 358 358 1 360 355 347 341 333 280 244 230 236 220 202 203 202 205 206 203 206 205 211 213 209 221 222
345 329 335 338 336 339 338 339 340 338 340 341 345 346 343 351 360 359 1 359 1 3 4 0 2 352 339 306 309 260 232 215 201 203 202 205 204 196 205 204 209 211 211 210 236
329 333 333 335 337 335 339 340 339 340 340 343 345 349 344 351 356 358 3 2 4 5 5 5 359 354 352 337 319 265 216 209 200 200 204 205 204 202 205 204 206 210 211 210 211
330 336 331 333 336 335 340 341 340 341 341 345 345 354 346 354 357 4 5 5 4 7 7 7 1 359 355 349 326 278 218 207 202 202 206 206 206 200 206 203 205 208 209 210 212
329 336 331 332 334 338 341 338 340 340 342 345 346 354 347 357 356 6 6 7 7 8 9 8 8 353 353 357 335 294 229 209 206 207 206 205 206 205 203 207 206 207 209 209 210
331 338 328 332 335 337 342 341 340 342 343 346 347 348 348 351 1 8 8 7 8 9 10 9 7 1 353 354 338 307 240 214 206 207 208 207 206 208 203 207 205 207 210 209 209
327 327 327 330 336 337 340 338 341 343 344 347 349 346 350 350 358 7 6 8 8 7 9 11 11 6 351 350 357 325 270 224 211 206 209 208 198 209 206 201 208 207 208 210 212
324 332 327 328 336 338 341 339 340 342 347 347 350 348 350 351 355 3 11 11 10 8 8 9 10 10 7 353 1 343 323 243 218 209 204 209 203 208 209 205 206 204 209 210 212
321 343 338 327 334 338 340 338 341 342 346 347 350 349 352 353 356 4 3 11 10 10 9 9 9 8 9 348 347 355 334 303 258 215 206 209 212 209 211 208 207 210 209 211 211
315 319 331 326 332 334 336 340 341 342 345 346 352 350 353 0 360 6 9 12 10 10 10 9 9 9 9 9 336 349 347 322 275 251 213 206 212 215 212 210 204 208 206 211 213
312 324 334 326 330 333 336 338 341 342 344 347 351 350 351 355 356 360 9 8 12 11 8 10 8 9 9 7 1 341 330 333 290 264 246 212 213 214 214 212 210 205 208 210 214